Regional Weather Roundup
Issued by NWS

Home | Current Version | Previous Version | Text Only | Print | Product List | Glossary On
Versions: 1 2 3 4 5 6 7 8 9 10 11 12 13 14 15 16 17 18 19 20 21 22 23 24 25 26 27 28 29 30 31 32 33 34 35 36 37 38 39 40 41 42 43 44 45 46 47 48 49 50
276
ASHW40 PHFO 220412
RWRHI

WEATHER ROUNDUP FOR HAWAII
NATIONAL WEATHER SERVICE HONOLULU HI
600 PM HST THU SEP 21 2017

THIS IS AN AUTOMATED REPORT THAT HAS NOT BEEN QUALITY CONTROLLED.

NOTE..."FAIR" INDICATES FEW OR NO CLOUDS BELOW 12,000 FEET WITH NO
SIGNIFICANT WEATHER AND/OR OBSTRUCTIONS TO VISIBILITY.

* - THESE SITES REPORT LIMITED FIELDS
# - BUOY DATA PROVIDED BY PACIFIC ISLANDS OCEAN OBSERVING SYSTEM.

HIZ001>004-220500-
KAUAI-NIIHAU-

CITY           SKY/WX    TMP DP  RH WIND       PRES   REMARKS
LIHUE APT      CLEAR     82  69  64 NE15      30.05R
PORT ALLEN*      N/A     82 N/A N/A E20G28      N/A
POIPU*           N/A     81 N/A N/A NE10G21     N/A
PRINCEVILLE*     N/A     81 N/A N/A E8G16       N/A
KOKOLE POINT*  NOT AVBL
MOLOAA DAIRY*    N/A     81  68  65 E3G12       N/A
WAIMEA HTS*    NOT AVBL
PUU OPAE*      NOT AVBL
PUU LUA*       NOT AVBL
MAKAHA RIDGE*  NOT AVBL
$$

HIZ005>011-220500-
OAHU-

CITY           SKY/WX    TMP DP  RH WIND       PRES   REMARKS
HONOLULU       PTCLDY    82  64  54 NE17      30.01R
KALAELOA       PTCLDY    83  64  52 NE12G20   30.01R
KANEOHE MCB    NOT AVBL
WHEELER FIELD  MOCLDY    79  65  62 NE5       30.03R
BELLOWS*       NOT AVBL
KAHUKU*        NOT AVBL
WHEELER*       NOT AVBL
WAIANAE HARBOR NOT AVBL
DILLINGHAM*      N/A     90  73  58 SW8G20      N/A  HX  98
KAHUKU TRN*      N/A     84  75  74 W12G23      N/A  HX  92
KAWAILOA*        N/A     75  66  73 E12G22      N/A
KII*             N/A     81  70  69 E17G23      N/A
MAKUA RANGE*     N/A     68  50  52 W5G21       N/A
OAHU FOREST NW NOT AVBL
SCHOFIELD BRK*   N/A     82  68  61 MISG        N/A
SCHOFIELD S*   NOT AVBL
WAIANAE VLY*   NOT AVBL
KUAOKALA*      NOT AVBL
HONOULIUULI*   NOT AVBL
MOKUOLOE IS*   NOT AVBL
PALEHUA*       NOT AVBL
WAIAWA PHB*    NOT AVBL
$$

HIZ012>013-220500-
MOLOKAI-

CITY           SKY/WX    TMP DP  RH WIND       PRES   REMARKS
MOLOKAI AIRPT  MOCLDY    79  67  66 NE13G25   30.03R
KALAUPAPA      NOT AVBL
MAKAPULAPAI*   NOT AVBL
MOLOKAI 1*     NOT AVBL
PUU ALII*      NOT AVBL
$$

HIZ016-220500-
KAHOOLAWE-

CITY           SKY/WX    TMP DP  RH WIND       PRES   REMARKS
KAHOOLAWE*     NOT AVBL
HAKIOAWA*      NOT AVBL
HONOKANAIA*      N/A     82  65  56 NE15G31   29.92R
KANELOA*         N/A     79  66  65 E18G32    30.05R
KEALIALALO*    NOT AVBL
LUA MAKIKA*    NOT AVBL
$$

HIZ014>015-220500-
LANAI-

CITY           SKY/WX    TMP DP  RH WIND       PRES   REMARKS
LANAI CITY     FAIR      75  66  73 NE25      30.04R
LANAI 1*       NOT AVBL
$$

HIZ017>028-220500-
MAUI-

CITY           SKY/WX    TMP DP  RH WIND       PRES   REMARKS
KAHULUI        PTCLDY    80  70  71 NE13      30.01R
KAPALUA-W MAUI PTCLDY    81  64  57 N17G24    30.01R
HANA AIRPORT   NOT AVBL
HANA*          NOT AVBL
HALEAKALA SUMM   N/A     50  14  23 N9G24       N/A
MAALAEA BAY*   NOT AVBL
HALEAKALA*     NOT AVBL
KAUPO GAP*     NOT AVBL
KULA 1*          N/A     56  54  93 N3G10       N/A
$$

HIZ023>026-220500-
BIG ISLAND OF HAWAII COAST AND LOWER SLOPES-

CITY           SKY/WX    TMP DP  RH WIND       PRES   REMARKS
KAILUA KONA    PTCLDY    83  68  60 S8        29.95R
HILO           PTCLDY    79  68  69 NE5       30.02R
HONOKAA*         N/A     73 N/A N/A VRB1        N/A
KAWAIHAE MWT*    N/A     86 N/A N/A W5          N/A
KAWAIHAE*      NOT AVBL
SOUTH POINT*     N/A     75 N/A N/A VRB18G25    N/A
UPOLU AIRPORT* NOT AVBL
KAMUELA*       NOT AVBL
HAKALAU*         N/A     53  51  94 NE1G7       N/A
KALOKO-HONOKO* NOT AVBL
PALI 2*          N/A     68  59  73 SW18G26     N/A
KEALAKOMO*       N/A     82  64  54 NE18G26     N/A
KAUPULEHU*     NOT AVBL
KAPAPALA*        N/A     77  61  56 NE7G17      N/A
LOWER KAHUKU*  NOT AVBL
PUHE CS*       NOT AVBL
PUHO CS*       NOT AVBL
PTA KEAMUKU*     N/A     66  57  72 NE18G32     N/A
WAIKOLOA*      NOT AVBL
$$

HIZ027>028-220500-
BIG ISLAND OF HAWAII INTERIOR AND SUMMMITS-

CITY           SKY/WX    TMP DP  RH WIND       PRES   REMARKS
BRADSHAW FIELD CLOUDY    61  55  80 SE3       30.32S
MK VISITOR CEN   N/A     50  48  93 CALM        N/A
MAUNA KEA*       N/A     39  32  75 W25         N/A  WCI  28
MAUNA LOA*       N/A     46  37  71 MISG        N/A
MAUNA LOA 1*   NOT AVBL
PTA KIPUKA*      N/A     66  59  77 SE3G12      N/A
PTA RANGE 17*    N/A     66  57  72 E6G14       N/A
PTA WEST*        N/A     72  61  68 W6G15       N/A
NENE CABIN*    NOT AVBL
AHUMOA*        NOT AVBL
PTA PORTABLE*  NOT AVBL
PUU MALI*        N/A     61  46  59 NE3G16      N/A
$$

HIC003-220500-
NORTHWEST ISLANDS-

CITY           SKY/WX    TMP DP  RH WIND       PRES   REMARKS
MIDWAY ISLAND  PTSUNNY   82  73  74 NE8       30.12S
MIDWAY NOS*    NOT AVBL
FRENCH FRIGATE NOT AVBL
$$

PHZ110>124-180-220500-
BUOY REPORTS

STATION/POSITION TIME  TEMP    WIND        PRES    WAVE   SWELL
                       AIR SEA DIR/SP/G            HT/PER HT/DIR
                 (UTC) (F)     (DEG/KT/KT) (MB)    (FT/S) (FT/D)
BUOY 51001       0350   81 82   60/ 16/ 19 1018.3R   7/11   5/330
BUOY 51101       0350   81 82   60/ 16/ 17 1018.8R   6/11   5/300
BUOY 51100       NOT AVBL
BUOY 51002       0350   81 81   70/ 16/ 19 1013.6R   8/ 8   5/ 80
BUOY 51003       0350   81 82   60/ 14/ 16 1014.5R   6/ 8   5/ 90
BUOY 51004       0350      80   50/ 14/ 16 1014.0R   7/ 8   5/ 80
WAIMEA BAY#      0402      80                N/A     5/13   3/310
MOKAPU POINT#    0334      81                N/A     6/ 6   2/ 80
LANAI#           NOT AVBL
BARBERS PT 2#    NOT AVBL
PAUWELA#         0339      80                N/A     6/ 8   2/320
HILO#            0357      81                N/A     6/ 8   2/130
KANEOHE BAY#     NOT AVBL
KANEOHE BAY 2#   NOT AVBL
HANALEI#         0352      81                N/A     5/13   2/300
KAHULUI HARBOR   0342   79 80   60/ 13/ 20 1016.3R
HONOLULU HARBOR  0348   82 81   70/  5/ 10 1016.7R
PEARL HARBOR#    0330      82                N/A     3/ 6   2/150
KILO NALU        NOT AVBL
HILO HARBOR      0342   80 80   40/  7/ 10 1016.1R
MOKUOLOE         0336   81 82   70/ 15/ 17 1016.8R
NAWILIWILI       0342   80 83   50/ 12/ 15 1017.0R
WHOTS BUOY       NOT AVBL
BUOY 51028       NOT AVBL
$$

......................KEY........................................
  SKY/WX - SKY CONDITIONS/PRESENT WEATHER
  TMP    - TEMPERATURE IN FAHRENHEIT
  DWPT   - DEWPOINT IN FAHRENHEIT
  RH     - RELATIVE HUMIDITY IN PERCENT
  WIND   - DIRECTION AND SPEED /MPH FOR ISLANDS...KTS FOR BUOYS/
  PRES   - MEAN SEA LEVEL PRESSURE IN INCHES OF HG
  VSB    - VISIBILITY IN MILES
  HX     - HEAT INDEX
  WCI    - WIND CHILL INDEX
  VRB    - VARIABLE WIND DIRECTION
  N/A    - NOT AVAILABLE




USA.gov is the U.S. government's official web portal to all federal, state and local government web resources and services.